Погода в Молгачах

Россия / Самарская область     53°31′57″N   50°06′50″E
темп.,
°C
ветер,
м/с
пор.,
м/с
влажн.,
%
обл.,
%
осадки,
мм/ч
давл.,
гПа
погр.,
м
11 мая, вт
вт1101:00+15в2267100 0.0 101923
04:00+14всв2268100 0.0 102127
07:00+16в276399 0.0 1022216
10:00+20юв4747100 0.0 1024794
13:00+22вюв5841100 0.0 10241784
16:00+23в673918 0.0 10252319
19:00+20вюв375630 0.0 1025267
22:00+15ссз117394 0.0 102611
12 мая, ср
ср1201:00+14св227177 0.0 102613
04:00+13в227099 0.0 102615
07:00+15вюв2766100 0.0 1027261
10:00+17юв375995 0.0 1027398
13:00+23вюв693296 0.0 10271721
16:00+22юв4641100 0.0 1026727
19:00+20юв3753100 0.0 1026188
22:00+15юв226227 0.0 102712
13 мая, чт
чт1301:00+15в226486 0.0 102640
04:00+13в34685 0.0 102663
07:00+15в3106344 0.0 1026294
10:00+21вюв694394 0.0 1025674
13:00+25вюв563596 0.0 10251310
16:00+26юв5735100 0.0 10241960
19:00+22юв2253100 0.0 102423
22:00+19юв2358100 0.0 102440
14 мая, пт
пт1401:00+16юв2264100 0.0 102423
04:00+14юв226772 0.2 102429
07:00+17юв312605 0.0 1024351
10:00+24ююв69345 0.0 1024680
13:00+27ю58255 0.0 10231554
16:00+28ю57275 0.0 10231873
19:00+24ю374199 0.0 1022144
22:00+19ю225099 0.0 102317
15 мая, сб
сб1501:00+17ююв225197 0.0 102314
04:00+15ююв22524 0.0 102320
07:00+18ююв28525 0.0 1023220
10:00+24ю57340 0.0 1022587
13:00+28ю57245 0.0 10221719
16:00+29ююз562589 0.0 10202417
19:00
22:00+19ю22465 0.0 102011